O'Neill, NE

6:12 PM CST on November 20, 2019 (GMT -0600)
The O'Neill Municipal-Baker

Weather History for KONL - October, 2019

Change the Weather History Date:

Monday, October 21, 2019

  Actual Average Record
Temperature  
Mean Temperature 40 °F -  
Max Temperature 44 °F 63 °F 83 °F (1978)
Min Temperature 37 °F 36 °F 13 °F (1987)
Degree Days  
Heating Degree Days 24    
Moisture  
Dew Point 38 °F    
Average Humidity 87    
Maximum Humidity 95    
Minimum Humidity 72    
Precipitation  
Precipitation 0.06 in - - ()
Sea Level Pressure  
Sea Level Pressure 29.58 in    
Wind  
Wind Speed 17 mph ()    
Max Wind Speed 33 mph    
Max Gust Speed 45 mph    
Visibility 9.0 miles    
Events Rain    
Averages and records for this station are not official NWS values.
T = Trace of Precipitation, MM = Missing Value Source: Averaged Metar Reports

Daily Weather History Graph

Daily Weather History Graph

Search for Another Location

Airport or City:

Astronomy

Oct. 21, 2019 Rise Set
Actual Time 7:54 AM CDT 6:43 PM CDT
Civil Twilight 7:25 AM CDT 7:12 PM CDT
Nautical Twilight 6:53 AM CDT 7:44 PM CDT
Astronomical Twilight 6:20 AM CDT 8:17 PM CDT
Moon No Moon Rise 3:18 PM CDT
Length of Visible Light 11h 46m
Length of Day
10h 48m
Waning Gibbous, 48% of the Moon is Illuminated
Oct 21
Waning Gibbous
Oct 27
New
Nov 4
First Quarter
Nov 12
Full
Nov 19
Last Quarter

Hourly Weather History & Observations

Time (CDT) Temp. Windchill Dew Point Humidity Pressure Visibility Wind Dir Wind Speed Gust Speed Precip Events Conditions
12:15 AM 40.1 °F - 35.6 °F 84% 29.44 in 10.0 mi Calm Calm - N/A   Clear
12:35 AM 39.6 °F 36.3 °F 34.5 °F 82% 29.42 in 10.0 mi SSW 4.6 mph - N/A   Clear
12:55 AM 37.9 °F 33.5 °F 33.1 °F 83% 29.42 in 10.0 mi SW 5.8 mph - N/A   Clear
1:15 AM 37.4 °F 32.8 °F 32.2 °F 81% 29.42 in 10.0 mi WSW 5.8 mph - N/A   Scattered Clouds
1:35 AM 37.6 °F 30.0 °F 32.0 °F 80% 29.42 in 10.0 mi West 11.5 mph - N/A   Mostly Cloudy
1:55 AM 39.4 °F 31.8 °F 34.5 °F 83% 29.42 in 10.0 mi West 12.7 mph 18.4 mph N/A   Scattered Clouds
2:15 AM 40.1 °F 31.6 °F 36.3 °F 86% 29.43 in 10.0 mi West 16.1 mph 21.9 mph N/A   Scattered Clouds
2:35 AM 43.2 °F 35.3 °F 40.6 °F 91% 29.43 in 10.0 mi WNW 17.3 mph 27.6 mph N/A   Mostly Cloudy
2:55 AM 43.5 °F 35.5 °F 40.5 °F 89% 29.44 in 10.0 mi WNW 18.4 mph 27.6 mph N/A   Overcast
3:15 AM 42.3 °F 34.1 °F 39.7 °F 91% 29.44 in 10.0 mi NW 17.3 mph 23.0 mph N/A   Overcast
3:35 AM 41.4 °F 31.6 °F 39.0 °F 91% 29.44 in 10.0 mi WNW 23.0 mph 29.9 mph N/A   Overcast
3:55 AM 40.6 °F 31.7 °F 37.8 °F 89% 29.44 in 10.0 mi WNW 18.4 mph 23.0 mph N/A   Overcast
4:15 AM 39.9 °F 30.2 °F 36.5 °F 88% 29.43 in 10.0 mi WNW 20.7 mph 24.2 mph N/A   Overcast
4:35 AM 39.6 °F 31.7 °F 36.0 °F 87% 29.43 in 10.0 mi WNW 13.8 mph 23.0 mph N/A   Overcast
4:55 AM 39.6 °F 31.0 °F 36.1 °F 88% 29.43 in 10.0 mi WNW 16.1 mph 23.0 mph N/A   Overcast
5:15 AM 39.6 °F 30.6 °F 35.8 °F 86% 29.43 in 10.0 mi WNW 17.3 mph 23.0 mph N/A   Overcast
5:35 AM 39.4 °F 30.4 °F 35.8 °F 87% 29.43 in 10.0 mi WNW 17.3 mph 26.5 mph N/A   Overcast
5:55 AM 39.7 °F 31.5 °F 36.5 °F 88% 29.44 in 10.0 mi WNW 15.0 mph 21.9 mph N/A   Overcast
6:15 AM 40.1 °F 30.7 °F 36.7 °F 88% 29.44 in 10.0 mi WNW 19.6 mph 24.2 mph N/A   Overcast
6:35 AM 40.1 °F 30.7 °F 36.5 °F 87% 29.44 in 10.0 mi WNW 19.6 mph 25.3 mph N/A   Overcast
6:55 AM 39.7 °F 30.6 °F 36.3 °F 88% 29.43 in 10.0 mi WNW 18.4 mph 27.6 mph N/A   Overcast
7:15 AM 40.1 °F 30.5 °F 36.5 °F 87% 29.43 in 10.0 mi WNW 20.7 mph 27.6 mph N/A   Overcast
7:35 AM 40.1 °F 29.9 °F 36.7 °F 88% 29.42 in 10.0 mi WNW 23.0 mph 31.1 mph N/A   Overcast
7:55 AM 40.6 °F 30.7 °F 37.4 °F 88% 29.42 in 10.0 mi WNW 23.0 mph 31.1 mph N/A   Overcast
8:15 AM 41.0 °F 31.6 °F 37.9 °F 89% 29.43 in 10.0 mi WNW 20.7 mph 31.1 mph N/A   Overcast
8:35 AM 42.6 °F 33.1 °F 40.3 °F 91% 29.43 in 10.0 mi NW 24.2 mph 33.4 mph N/A   Overcast
8:55 AM 43.5 °F 33.6 °F 41.4 °F 92% 29.45 in 7.0 mi WNW 27.6 mph 38.0 mph N/A   Drizzle
9:15 AM 43.7 °F 34.5 °F 41.9 °F 93% 29.46 in 7.0 mi NW 24.2 mph 33.4 mph 0.02 in Rain Light Rain
9:35 AM 44.1 °F 34.6 °F 42.3 °F 93% 29.47 in 10.0 mi NW 26.5 mph 35.7 mph 0.02 in   Overcast
9:55 AM 43.5 °F 34.0 °F 41.9 °F 94% 29.48 in 10.0 mi NW 25.3 mph 32.2 mph 0.02 in   Overcast
10:15 AM 42.8 °F 34.0 °F 41.5 °F 95% 29.50 in 10.0 mi WNW 20.7 mph 32.2 mph N/A   Overcast
10:35 AM 42.8 °F 33.5 °F 41.4 °F 95% 29.50 in 5.0 mi NW 23.0 mph 28.8 mph N/A Rain Light Rain
10:55 AM 42.8 °F 34.3 °F 41.4 °F 95% 29.49 in 5.0 mi WNW 19.6 mph 29.9 mph N/A   Overcast
11:15 AM 42.8 °F 33.8 °F 41.0 °F 93% 29.50 in 10.0 mi WNW 21.9 mph 33.4 mph N/A   Overcast
11:35 AM 42.8 °F 33.8 °F 40.6 °F 92% 29.50 in 10.0 mi WNW 21.9 mph 32.2 mph N/A   Overcast
11:55 AM 43.0 °F 33.8 °F 41.4 °F 94% 29.52 in 10.0 mi WNW 23.0 mph 28.8 mph N/A   Overcast
12:15 PM 43.3 °F 34.2 °F 41.2 °F 92% 29.52 in 7.0 mi WNW 23.0 mph 31.1 mph N/A   Overcast
12:35 PM 43.2 °F 33.6 °F 41.7 °F 95% 29.53 in 3.0 mi WNW 25.3 mph 32.2 mph N/A   Overcast
12:55 PM 43.5 °F 34.0 °F 41.9 °F 94% 29.53 in 2.5 mi NW 25.3 mph 36.8 mph N/A   Overcast
1:15 PM 43.9 °F 34.5 °F 42.6 °F 95% 29.54 in 4.0 mi NW 25.3 mph 32.2 mph N/A   Overcast
1:35 PM 43.9 °F 34.1 °F 42.1 °F 93% 29.55 in 4.0 mi NW 27.6 mph 40.3 mph N/A   Overcast
1:55 PM 43.2 °F 33.6 °F 41.2 °F 93% 29.56 in 5.0 mi NW 25.3 mph 34.5 mph N/A   Overcast
2:15 PM 42.8 °F 32.5 °F 40.1 °F 90% 29.57 in 10.0 mi NW 28.8 mph 40.3 mph N/A   Overcast
2:35 PM 42.8 °F 32.3 °F 39.7 °F 89% 29.58 in 10.0 mi NW 29.9 mph 44.9 mph N/A   Overcast
2:55 PM 42.3 °F 31.6 °F 39.6 °F 90% 29.60 in 10.0 mi NW 29.9 mph 41.4 mph N/A   Overcast
3:15 PM 42.3 °F 31.8 °F 39.6 °F 90% 29.61 in 10.0 mi NW 28.8 mph 43.7 mph N/A   Light Drizzle
3:35 PM 42.1 °F 30.8 °F 39.6 °F 91% 29.63 in 10.0 mi NW 33.4 mph 40.3 mph N/A   Drizzle
3:55 PM 41.9 °F 31.3 °F 39.7 °F 92% 29.64 in 10.0 mi NW 28.8 mph 40.3 mph 0.01 in Rain Rain
4:15 PM 42.1 °F 31.7 °F 40.1 °F 93% 29.66 in 7.0 mi NW 27.6 mph 39.1 mph N/A   Light Drizzle
4:35 PM 42.1 °F 31.1 °F 39.9 °F 92% 29.67 in 5.0 mi NW 31.1 mph 43.7 mph 0.01 in   Light Drizzle
4:55 PM 41.9 °F 30.5 °F 39.6 °F 91% 29.69 in 7.0 mi NW 33.4 mph 41.4 mph 0.01 in   Light Drizzle
5:15 PM 41.9 °F 31.5 °F 40.1 °F 93% 29.71 in 7.0 mi NW 27.6 mph 34.5 mph 0.01 in Rain Rain
5:35 PM 41.4 °F 31.2 °F 39.6 °F 93% 29.71 in 7.0 mi NW 25.3 mph 36.8 mph 0.01 in   Drizzle
5:55 PM 41.2 °F 30.7 °F 39.2 °F 93% 29.72 in 10.0 mi NW 26.5 mph 36.8 mph 0.02 in   Light Drizzle
6:15 PM 41.2 °F 30.7 °F 39.2 °F 93% 29.74 in 10.0 mi NW 26.5 mph 36.8 mph N/A   Overcast
6:35 PM 41.2 °F 30.1 °F 38.8 °F 91% 29.75 in 7.0 mi NW 29.9 mph 39.1 mph N/A   Overcast
6:55 PM 41.0 °F 30.0 °F 38.3 °F 90% 29.76 in 10.0 mi NW 28.8 mph 42.6 mph N/A   Overcast
7:15 PM 41.0 °F 30.7 °F 38.3 °F 90% 29.77 in 10.0 mi NW 25.3 mph 33.4 mph N/A   Overcast
7:35 PM 41.5 °F 31.4 °F 37.6 °F 86% 29.77 in 10.0 mi NW 25.3 mph 32.2 mph N/A   Overcast
7:55 PM 42.1 °F 32.3 °F 36.3 °F 80% 29.79 in 10.0 mi NW 24.2 mph 34.5 mph N/A   Overcast
8:15 PM 42.3 °F 32.4 °F 35.2 °F 76% 29.80 in 10.0 mi NW 25.3 mph 31.1 mph N/A   Overcast
8:35 PM 42.8 °F 33.3 °F 34.2 °F 72% 29.81 in 10.0 mi NW 24.2 mph 32.2 mph N/A   Overcast
8:55 PM 41.9 °F 32.6 °F 33.6 °F 72% 29.81 in 10.0 mi NW 21.9 mph 33.4 mph N/A   Mostly Cloudy
9:15 PM 41.2 °F 32.4 °F 33.3 °F 73% 29.82 in 10.0 mi NW 18.4 mph 26.5 mph N/A   Scattered Clouds
9:35 PM 41.0 °F 31.1 °F 33.1 °F 73% 29.82 in 10.0 mi NW 23.0 mph 28.8 mph N/A   Clear
9:55 PM 40.5 °F 31.5 °F 32.7 °F 74% 29.83 in 10.0 mi NW 18.4 mph 28.8 mph N/A   Clear
10:15 PM 40.1 °F 30.7 °F 32.4 °F 74% 29.84 in 10.0 mi NW 19.6 mph 27.6 mph N/A   Clear
10:35 PM 40.1 °F 30.5 °F 32.0 °F 73% 29.84 in 10.0 mi NW 20.7 mph 27.6 mph N/A   Clear
10:55 PM 39.4 °F 30.1 °F 32.0 °F 75% 29.85 in 10.0 mi NW 18.4 mph 25.3 mph N/A   Clear
11:15 PM 39.4 °F 29.8 °F 32.0 °F 75% 29.85 in 10.0 mi NW 19.6 mph 26.5 mph N/A   Clear
11:35 PM 39.4 °F 29.5 °F 32.0 °F 75% 29.86 in 10.0 mi NW 20.7 mph 27.6 mph N/A   Clear
11:55 PM 39.2 °F 29.3 °F 32.0 °F 75% 29.86 in 10.0 mi NW 20.7 mph 25.3 mph N/A   Clear